EW2263 Weather Reports


time (UTC)temp
C
wind
direction
speed
KPH
gust
KPH
rain 1hr
cm
rain 24hr
cm
rain mn
cm
humidity
%
barometer
mb
20260509024504 14 226 0.0 0.0 0.00 0.00 0.00 84 1010.9
20260509023005 15 226 0.0 0.0 0.00 0.00 0.00 82 1010.9
20260509021504 15 226 0.0 0.0 0.00 0.00 0.00 81 1010.8
20260509020003 15 226 0.0 0.0 0.00 0.00 0.00 81 1011.1
20260509014506 15 226 0.0 0.0 0.00 0.00 0.00 79 1011.0
20260509013003 16 226 0.0 0.0 0.00 0.00 0.00 78 1010.7
20260509011502 16 226 0.0 0.0 0.00 0.00 0.00 77 1010.4
20260509010001 16 226 0.0 0.0 0.00 0.00 0.00 76 1010.5
20260509004500 17 226 0.0 0.0 0.00 0.00 0.00 74 1010.4
20260509003108 17 240 0.0 0.0 0.00 0.00 0.00 73 1010.4
20260509001600 17 196 0.0 0.0 0.00 0.00 0.00 70 1010.4
20260509000106 18 202 1.6 0.0 0.00 0.00 0.00 69 1010.1
20260508234559 18 149 0.0 0.0 0.00 0.00 0.00 67 1010.0
20260508233107 19 231 1.6 0.0 0.00 0.00 0.00 66 1010.1
20260508231635 20 134 1.6 0.0 0.00 0.00 0.00 62 1010.2
20260508230018 20 108 1.6 0.0 0.00 0.00 0.00 64 1010.0
20260508224524 20 83 1.6 0.0 0.00 0.00 0.00 63 1010.0
20260508223033 20 13 1.6 0.0 0.00 0.00 0.00 62 1010.1
20260508221516 20 211 3.2 0.0 0.00 0.00 0.00 59 1010.1
20260508220019 21 146 1.6 0.0 0.00 0.00 0.00 58 1009.9
20260508214515 21 170 1.6 0.0 0.00 0.00 0.00 57 1009.8
20260508213015 21 349 1.6 0.0 0.00 0.00 0.00 57 1009.9
20260508211515 21 143 1.6 0.0 0.00 0.00 0.00 56 1010.1
20260508210014 21 230 3.2 0.0 0.00 0.00 0.00 57 1009.9
20260508204515 21 136 3.2 0.0 0.00 0.00 0.00 56 1010.0
20260508203015 21 293 1.6 0.0 0.00 0.00 0.00 54 1009.9
20260508201516 22 347 1.6 0.0 0.00 0.00 0.00 56 1010.2
20260508200013 22 156 3.2 0.0 0.00 0.00 0.00 53 1010.4
20260508194512 22 186 3.2 0.0 0.00 0.00 0.00 50 1010.7
20260508193012 23 255 3.2 0.0 0.00 0.00 0.00 52 1010.9
20260508191528 23 121 3.2 0.0 0.00 0.00 0.00 49 1011.1
20260508190008 22 273 3.2 0.0 0.00 0.00 0.00 54 1011.2
20260508184507 22 212 3.2 0.0 0.00 0.00 0.00 53 1011.5
20260508183007 21 92 1.6 0.0 0.00 0.00 0.00 57 1011.8
20260508181506 22 160 3.2 0.0 0.00 0.00 0.00 51 1011.9
20260508180003 22 103 3.2 0.0 0.00 0.00 0.00 56 1012.2
20260508174501 21 182 3.2 0.0 0.00 0.00 0.00 52 1012.3
20260508173001 22 102 3.2 0.0 0.00 0.00 0.00 52 1012.5
20260508171559 21 350 3.2 0.0 0.00 0.00 0.00 55 1012.5
20260508170058 21 132 3.2 0.0 0.00 0.00 0.00 53 1013.0
20260508164604 21 162 1.6 0.0 0.00 0.00 0.00 53 1013.1
20260508163053 20 96 1.6 0.0 0.00 0.00 0.00 59 1013.4
20260508161553 20 36 1.6 0.0 0.00 0.00 0.00 58 1013.5
20260508160052 20 260 3.2 0.0 0.00 0.00 0.00 56 1013.6
20260508154550 20 5 1.6 0.0 0.00 0.00 0.00 57 1013.9
20260508153049 20 109 3.2 0.0 0.00 0.00 0.00 59 1014.1
20260508151547 19 134 3.2 0.0 0.00 0.00 0.00 57 1014.0
20260508150046 19 21 3.2 0.0 0.00 0.00 0.00 61 1014.0
20260508144546 19 235 1.6 0.0 0.00 0.00 0.00 61 1014.0
20260508143043 18 70 1.6 0.0 0.00 0.00 0.00 65 1014.0
20260508141540 18 115 3.2 0.0 0.00 0.00 0.00 66 1014.1
20260508140040 17 51 1.6 0.0 0.00 0.00 0.00 69 1014.4
20260508134535 17 63 1.6 0.0 0.00 0.00 0.00 71 1014.5
20260508133030 16 308 1.6 0.0 0.00 0.00 0.00 72 1014.5
20260508131525 15 329 1.6 0.0 0.00 0.00 0.00 77 1014.3
20260508130022 14 19 0.0 0.0 0.00 0.00 0.00 81 1014.1
20260508124516 12 327 0.0 0.0 0.00 0.00 0.00 89 1013.9
20260508123013 12 193 0.0 0.0 0.00 0.00 0.00 97 1013.9
20260508121512 11 193 0.0 0.0 0.00 0.00 0.00 97 1013.7
20260508120026 10 193 0.0 0.0 0.00 0.00 0.00 97 1013.5
20260508114510 9 193 0.0 0.0 0.00 0.00 0.00 96 1013.4
20260508113012 8 193 0.0 0.0 0.00 0.00 0.00 95 1013.1
20260508111506 8 193 0.0 0.0 0.00 0.00 0.00 94 1012.7
20260508104536 8 193 0.0 0.0 0.00 0.00 0.00 93 1012.2
20260508103035 8 193 0.0 0.0 0.00 0.00 0.00 92 1012.1
20260508101530 8 193 0.0 0.0 0.00 0.00 0.00 92 1011.8
20260508100028 8 193 0.0 0.0 0.00 0.00 0.00 92 1011.5
20260508094526 8 193 0.0 0.0 0.00 0.00 0.00 92 1011.2
20260508093024 8 193 0.0 0.0 0.00 0.00 0.00 92 1011.1
20260508091524 8 193 0.0 0.0 0.00 0.00 0.00 92 1011.2
20260508090022 8 193 0.0 0.0 0.00 0.00 0.00 92 1010.9
20260508084521 8 193 0.0 0.0 0.00 0.00 0.00 92 1011.1
20260508083021 8 193 0.0 0.0 0.00 0.00 0.00 91 1010.9
20260508081519 9 193 0.0 0.0 0.00 0.00 0.00 92 1010.9
20260508080016 9 193 0.0 0.0 0.00 0.00 0.00 92 1010.8
20260508074517 9 193 0.0 0.0 0.00 0.00 0.00 92 1010.9
20260508073014 9 22 0.0 0.0 0.00 0.00 0.00 92 1010.6
20260508071512 9 22 0.0 0.0 0.00 0.00 0.00 91 1010.6
20260508070011 9 22 0.0 0.0 0.00 0.00 0.00 91 1010.5
20260508064509 9 22 0.0 0.0 0.00 0.00 0.00 91 1010.3
20260508063007 10 22 0.0 0.0 0.00 0.00 0.00 90 1010.4
20260508061506 10 21 0.0 0.0 0.00 0.00 0.00 91 1010.3
20260508060006 10 22 0.0 0.0 0.00 0.00 0.00 91 1010.3
20260508054507 10 22 0.0 0.0 0.00 0.00 0.00 90 1010.3
20260508053107 10 21 0.0 0.0 0.00 0.00 0.00 90 1010.3
20260508051606 10 22 0.0 0.0 0.00 0.00 0.00 89 1010.2
20260508050055 11 22 0.0 0.0 0.00 0.00 0.00 88 1010.1
20260508044552 11 22 0.0 0.0 0.00 0.00 0.00 88 1009.9
20260508043053 11 21 0.0 0.0 0.00 0.00 0.00 87 1010.0
20260508041547 12 22 0.0 0.0 0.00 0.00 0.00 86 1009.7
20260508040044 12 22 0.0 0.0 0.00 0.00 0.00 85 1009.6
20260508034548 12 22 0.0 0.0 0.00 0.00 3.20 84 1009.9
20260508033040 12 22 0.0 0.0 0.00 0.00 3.20 82 1009.7
20260508031538 13 22 0.0 0.0 0.00 0.00 3.20 80 1009.7
20260508030034 13 22 0.0 0.0 0.00 0.00 3.20 78 1009.4